Time,TemperatureF,DewpointF,PressureIn,WindDirection,WindDirectionDegrees,WindSpeedMPH,WindSpeedGustMPH,Humidity,HourlyPrecipIn,Conditions,Clouds,dailyrainin,SoftwareType,DateUTC
2013-04-16 00:01:00,73.8,70.3,29.99,West,270,2.0,7.0,89,0.00,,,0.00,WeatherCatV1.02B3,2013-04-16 05:01:00,
2013-04-16 00:06:00,73.9,70.4,29.99,WNW,282,2.0,2.0,89,0.00,,,0.00,WeatherCatV1.02B3,2013-04-16 05:06:00,
2013-04-16 00:11:00,73.9,70.1,29.99,West,278,0.0,4.0,88,0.00,,,0.00,WeatherCatV1.02B3,2013-04-16 05:11:00,
2013-04-16 00:16:00,73.9,70.1,29.99,West,265,2.0,5.0,88,0.00,,,0.00,WeatherCatV1.02B3,2013-04-16 05:16:00,
2013-04-16 00:21:00,73.9,70.1,29.99,WSW,256,2.0,3.0,88,0.00,,,0.00,WeatherCatV1.02B3,2013-04-16 05:21:00,
2013-04-16 00:26:00,73.8,70.0,30.00,West,272,1.0,5.0,88,0.00,,,0.00,WeatherCatV1.02B3,2013-04-16 05:26:00,
2013-04-16 00:31:00,73.7,70.2,30.00,West,280,2.0,9.0,89,0.00,,,0.00,WeatherCatV1.02B3,2013-04-16 05:31:00,
2013-04-16 00:36:00,73.7,70.2,30.00,WNW,285,1.0,6.0,89,0.00,,,0.00,WeatherCatV1.02B3,2013-04-16 05:36:00,
2013-04-16 00:41:00,73.6,70.1,30.00,West,281,3.0,4.0,89,0.00,,,0.00,WeatherCatV1.02B3,2013-04-16 05:41:00,
2013-04-16 00:46:00,73.5,70.0,30.00,WSW,253,0.0,5.0,89,0.00,,,0.00,WeatherCatV1.02B3,2013-04-16 05:46:00,
2013-04-16 00:51:00,73.5,70.0,30.00,West,264,0.0,3.0,89,0.00,,,0.00,WeatherCatV1.02B3,2013-04-16 05:51:00,
2013-04-16 00:56:00,73.4,70.0,30.00,WNW,286,2.0,7.0,89,0.00,,,0.00,WeatherCatV1.02B3,2013-04-16 05:56:00,
2013-04-16 01:01:00,73.4,70.0,30.00,West,279,6.0,9.0,89,0.00,,,0.00,WeatherCatV1.02B3,2013-04-16 06:01:00,
2013-04-16 01:06:00,73.3,69.9,30.00,WSW,242,2.0,9.0,89,0.00,,,0.00,WeatherCatV1.02B3,2013-04-16 06:06:00,
2013-04-16 01:11:00,73.2,69.8,30.00,West,267,1.0,8.0,89,0.00,,,0.00,WeatherCatV1.02B3,2013-04-16 06:11:00,
2013-04-16 01:16:00,73.1,69.7,30.00,WNW,292,0.0,4.0,89,0.00,,,0.00,WeatherCatV1.02B3,2013-04-16 06:16:00,
2013-04-16 01:21:00,73.0,69.6,30.00,WNW,297,2.0,6.0,89,0.00,,,0.00,WeatherCatV1.02B3,2013-04-16 06:21:00,
2013-04-16 01:26:00,73.0,69.9,30.00,West,263,0.0,1.0,90,0.00,,,0.00,WeatherCatV1.02B3,2013-04-16 06:26:00,
2013-04-16 01:31:00,73.0,69.9,30.00,WNW,283,4.0,6.0,90,0.00,,,0.00,WeatherCatV1.02B3,2013-04-16 06:31:00,
2013-04-16 01:36:00,72.9,69.8,30.00,WSW,254,4.0,9.0,90,0.00,,,0.00,WeatherCatV1.02B3,2013-04-16 06:36:00,
2013-04-16 01:41:00,72.9,69.8,30.00,West,263,3.0,5.0,90,0.00,,,0.00,WeatherCatV1.02B3,2013-04-16 06:41:00,
2013-04-16 01:46:00,72.8,69.7,30.00,West,275,0.0,3.0,90,0.00,,,0.00,WeatherCatV1.02B3,2013-04-16 06:46:00,
2013-04-16 01:51:00,72.8,69.7,30.00,West,275,1.0,3.0,90,0.00,,,0.00,WeatherCatV1.02B3,2013-04-16 06:51:00,
2013-04-16 01:56:00,72.8,69.7,30.00,West,274,2.0,4.0,90,0.00,,,0.00,WeatherCatV1.02B3,2013-04-16 06:56:00,
2013-04-16 02:01:00,72.7,69.6,30.00,WNW,288,2.0,5.0,90,0.00,,,0.00,WeatherCatV1.02B3,2013-04-16 07:01:00,
2013-04-16 02:06:00,72.7,69.6,29.99,West,271,3.0,11.0,90,0.00,,,0.00,WeatherCatV1.02B3,2013-04-16 07:06:00,
2013-04-16 02:11:00,72.6,69.5,29.99,WSW,257,7.0,7.0,90,0.00,,,0.00,WeatherCatV1.02B3,2013-04-16 07:11:00,
2013-04-16 02:16:00,72.6,69.5,29.99,West,266,0.0,6.0,90,0.00,,,0.00,WeatherCatV1.02B3,2013-04-16 07:16:00,
2013-04-16 02:21:00,72.6,69.5,29.99,West,271,2.0,3.0,90,0.00,,,0.00,WeatherCatV1.02B3,2013-04-16 07:21:00,
2013-04-16 02:26:00,72.5,69.4,29.99,West,262,6.0,6.0,90,0.00,,,0.00,WeatherCatV1.02B3,2013-04-16 07:26:00,
2013-04-16 02:31:00,72.5,69.4,29.99,West,265,7.0,8.0,90,0.00,,,0.00,WeatherCatV1.02B3,2013-04-16 07:31:00,
2013-04-16 02:36:00,72.5,69.4,29.99,West,280,2.0,8.0,90,0.00,,,0.00,WeatherCatV1.02B3,2013-04-16 07:36:00,
2013-04-16 02:41:00,72.4,69.3,29.99,WSW,242,0.0,8.0,90,0.00,,,0.00,WeatherCatV1.02B3,2013-04-16 07:41:00,
2013-04-16 02:46:00,72.4,69.3,29.99,West,269,2.0,5.0,90,0.00,,,0.00,WeatherCatV1.02B3,2013-04-16 07:46:00,
2013-04-16 02:51:00,72.4,69.3,29.99,WSW,247,5.0,5.0,90,0.00,,,0.00,WeatherCatV1.02B3,2013-04-16 07:51:00,
2013-04-16 02:56:00,72.4,69.3,29.99,WSW,257,6.0,6.0,90,0.00,,,0.00,WeatherCatV1.02B3,2013-04-16 07:56:00,
2013-04-16 03:01:00,72.3,69.2,29.99,WSW,252,0.0,6.0,90,0.00,,,0.00,WeatherCatV1.02B3,2013-04-16 08:01:00,
2013-04-16 03:06:00,72.3,69.2,29.99,West,263,2.0,6.0,90,0.00,,,0.00,WeatherCatV1.02B3,2013-04-16 08:06:00,
2013-04-16 03:11:00,72.3,69.2,30.00,West,263,2.0,6.0,90,0.00,,,0.00,WeatherCatV1.02B3,2013-04-16 08:11:00,
2013-04-16 03:16:00,72.3,69.2,30.00,West,273,1.0,4.0,90,0.00,,,0.00,WeatherCatV1.02B3,2013-04-16 08:16:00,
2013-04-16 03:21:00,72.3,69.5,29.99,West,281,1.0,2.0,91,0.00,,,0.00,WeatherCatV1.02B3,2013-04-16 08:21:00,
2013-04-16 03:26:00,72.2,69.4,29.99,West,276,4.0,4.0,91,0.00,,,0.00,WeatherCatV1.02B3,2013-04-16 08:26:00,
2013-04-16 03:31:00,72.3,69.2,29.99,WSW,254,1.0,4.0,90,0.00,,,0.00,WeatherCatV1.02B3,2013-04-16 08:31:00,
2013-04-16 03:36:00,72.3,69.2,29.99,West,276,0.0,2.0,90,0.00,,,0.00,WeatherCatV1.02B3,2013-04-16 08:36:00,
2013-04-16 03:41:00,72.3,69.2,29.99,West,270,8.0,8.0,90,0.00,,,0.00,WeatherCatV1.02B3,2013-04-16 08:41:00,
2013-04-16 03:46:00,72.3,69.5,29.99,West,272,0.0,8.0,91,0.00,,,0.00,WeatherCatV1.02B3,2013-04-16 08:46:00,
2013-04-16 03:51:00,72.3,69.5,30.00,West,265,0.0,3.0,91,0.00,,,0.00,WeatherCatV1.02B3,2013-04-16 08:51:00,
2013-04-16 03:56:00,72.3,69.5,30.00,West,262,0.0,4.0,91,0.00,,,0.00,WeatherCatV1.02B3,2013-04-16 08:56:00,
2013-04-16 04:01:00,72.3,69.5,30.00,West,280,1.0,3.0,91,0.00,,,0.00,WeatherCatV1.02B3,2013-04-16 09:01:00,
2013-04-16 04:06:00,72.3,69.5,30.00,WSW,254,1.0,4.0,91,0.00,,,0.00,WeatherCatV1.02B3,2013-04-16 09:06:00,
2013-04-16 04:11:00,72.3,69.5,30.00,WSW,240,3.0,4.0,91,0.00,,,0.00,WeatherCatV1.02B3,2013-04-16 09:11:00,
2013-04-16 04:16:00,72.3,69.5,30.00,WSW,254,0.0,3.0,91,0.00,,,0.00,WeatherCatV1.02B3,2013-04-16 09:16:00,
2013-04-16 04:21:00,72.3,69.5,30.00,WSW,254,5.0,5.0,91,0.00,,,0.00,WeatherCatV1.02B3,2013-04-16 09:21:00,
2013-04-16 04:26:00,72.3,69.5,30.00,WNW,287,2.0,2.0,91,0.00,,,0.00,WeatherCatV1.02B3,2013-04-16 09:26:00,
2013-04-16 04:31:00,72.3,69.5,30.00,West,266,3.0,8.0,91,0.00,,,0.00,WeatherCatV1.02B3,2013-04-16 09:31:00,
2013-04-16 04:36:00,72.4,69.6,30.00,West,270,0.0,4.0,91,0.00,,,0.00,WeatherCatV1.02B3,2013-04-16 09:36:00,
2013-04-16 04:41:00,72.4,69.6,30.00,West,269,4.0,5.0,91,0.00,,,0.00,WeatherCatV1.02B3,2013-04-16 09:41:00,
2013-04-16 04:46:00,72.4,69.6,30.00,West,276,0.0,1.0,91,0.00,,,0.00,WeatherCatV1.02B3,2013-04-16 09:46:00,
2013-04-16 04:51:00,72.4,69.6,30.01,WNW,294,1.0,3.0,91,0.00,,,0.00,WeatherCatV1.02B3,2013-04-16 09:51:00,
2013-04-16 04:56:00,72.4,69.3,30.01,West,265,0.0,2.0,90,0.00,,,0.00,WeatherCatV1.02B3,2013-04-16 09:56:00,
2013-04-16 05:01:00,72.4,69.3,30.01,West,275,0.0,1.0,90,0.00,,,0.00,WeatherCatV1.02B3,2013-04-16 10:01:00,
2013-04-16 05:06:00,72.4,69.3,30.01,West,264,3.0,4.0,90,0.00,,,0.00,WeatherCatV1.02B3,2013-04-16 10:06:00,
2013-04-16 05:11:00,72.5,69.4,30.01,West,279,1.0,2.0,90,0.00,,,0.00,WeatherCatV1.02B3,2013-04-16 10:11:00,
2013-04-16 05:16:00,72.5,69.4,30.01,WNW,288,0.0,3.0,90,0.00,,,0.00,WeatherCatV1.02B3,2013-04-16 10:16:00,
2013-04-16 05:21:00,72.5,69.4,30.01,WNW,294,0.0,2.0,90,0.00,,,0.00,WeatherCatV1.02B3,2013-04-16 10:21:00,
2013-04-16 05:26:00,72.5,69.7,30.01,West,277,0.0,0.0,91,0.00,,,0.00,WeatherCatV1.02B3,2013-04-16 10:26:00,
2013-04-16 05:31:00,72.4,69.6,30.01,West,273,0.0,3.0,91,0.00,,,0.00,WeatherCatV1.02B3,2013-04-16 10:31:00,
2013-04-16 05:36:00,72.4,69.6,30.02,West,259,0.0,6.0,91,0.00,,,0.00,WeatherCatV1.02B3,2013-04-16 10:36:00,
2013-04-16 05:40:00,72.4,69.6,30.02,West,259,0.0,0.0,91,0.00,,,0.00,WeatherCatV1.02B3,2013-04-16 10:40:00,
2013-04-16 05:41:00,72.4,69.6,30.02,West,259,0.0,1.0,91,0.00,,,0.00,WeatherCatV1.02B3,2013-04-16 10:41:00,
2013-04-16 05:46:00,72.4,69.6,30.02,West,267,0.0,3.0,91,0.00,,,0.00,WeatherCatV1.02B3,2013-04-16 10:46:00,
2013-04-16 05:51:00,72.3,69.5,30.02,WSW,254,3.0,9.0,91,0.00,,,0.00,WeatherCatV1.02B3,2013-04-16 10:51:00,
2013-04-16 05:56:00,72.3,69.5,30.02,West,271,0.0,3.0,91,0.00,,,0.00,WeatherCatV1.02B3,2013-04-16 10:56:00,
2013-04-16 06:01:00,72.3,69.5,30.02,West,268,0.0,5.0,91,0.00,,,0.00,WeatherCatV1.02B3,2013-04-16 11:01:00,
2013-04-16 06:06:00,72.3,69.5,30.02,West,269,3.0,3.0,91,0.00,,,0.00,WeatherCatV1.02B3,2013-04-16 11:06:00,
2013-04-16 06:11:00,72.2,69.4,30.03,West,269,1.0,2.0,91,0.00,,,0.00,WeatherCatV1.02B3,2013-04-16 11:11:00,
2013-04-16 06:16:00,72.2,69.7,30.03,West,276,0.0,2.0,92,0.00,,,0.00,WeatherCatV1.02B3,2013-04-16 11:16:00,
2013-04-16 06:21:00,72.2,69.7,30.03,West,276,0.0,0.0,92,0.00,,,0.00,WeatherCatV1.02B3,2013-04-16 11:21:00,
2013-04-16 06:26:00,72.2,69.7,30.03,West,279,2.0,3.0,92,0.00,,,0.00,WeatherCatV1.02B3,2013-04-16 11:26:00,
2013-04-16 06:31:00,72.2,69.7,30.03,West,274,3.0,3.0,92,0.00,,,0.00,WeatherCatV1.02B3,2013-04-16 11:31:00,
2013-04-16 06:36:00,72.2,69.7,30.03,WSW,257,1.0,6.0,92,0.00,,,0.00,WeatherCatV1.02B3,2013-04-16 11:36:00,
2013-04-16 06:41:00,72.1,69.6,30.04,West,267,0.0,2.0,92,0.00,,,0.00,WeatherCatV1.02B3,2013-04-16 11:41:00,
2013-04-16 06:46:00,72.1,69.6,30.04,West,267,0.0,2.0,92,0.00,,,0.00,WeatherCatV1.02B3,2013-04-16 11:46:00,
2013-04-16 06:51:00,72.1,69.6,30.04,West,272,3.0,3.0,92,0.00,,,0.00,WeatherCatV1.02B3,2013-04-16 11:51:00,
2013-04-16 06:56:00,72.0,69.5,30.04,West,268,0.0,0.0,92,0.00,,,0.00,WeatherCatV1.02B3,2013-04-16 11:56:00,
2013-04-16 07:01:00,71.9,69.4,30.05,West,280,0.0,1.0,92,0.00,,,0.00,WeatherCatV1.02B3,2013-04-16 12:01:00,
2013-04-16 07:06:00,71.9,69.4,30.05,West,280,0.0,1.0,92,0.00,,,0.00,WeatherCatV1.02B3,2013-04-16 12:06:00,
2013-04-16 07:11:00,71.9,69.4,30.05,West,280,0.0,0.0,92,0.00,,,0.00,WeatherCatV1.02B3,2013-04-16 12:11:00,
2013-04-16 07:16:00,71.9,69.4,30.05,WNW,284,0.0,2.0,92,0.00,,,0.00,WeatherCatV1.02B3,2013-04-16 12:16:00,
2013-04-16 07:21:00,71.9,69.4,30.05,West,259,0.0,1.0,92,0.00,,,0.00,WeatherCatV1.02B3,2013-04-16 12:21:00,
2013-04-16 07:26:00,71.9,69.4,30.05,West,261,0.0,2.0,92,0.00,,,0.00,WeatherCatV1.02B3,2013-04-16 12:26:00,
2013-04-16 07:31:00,72.0,69.9,30.05,West,263,2.0,3.0,93,0.00,,,0.00,WeatherCatV1.02B3,2013-04-16 12:31:00,
2013-04-16 07:36:00,72.1,70.0,30.05,West,264,0.0,3.0,93,0.00,,,0.00,WeatherCatV1.02B3,2013-04-16 12:36:00,
2013-04-16 07:41:00,72.2,70.1,30.05,West,271,2.0,2.0,93,0.00,,,0.00,WeatherCatV1.02B3,2013-04-16 12:41:00,
2013-04-16 07:46:00,72.4,69.9,30.05,WSW,252,0.0,5.0,92,0.00,,,0.00,WeatherCatV1.02B3,2013-04-16 12:46:00,
2013-04-16 07:51:00,72.5,70.0,30.05,West,266,2.0,4.0,92,0.00,,,0.00,WeatherCatV1.02B3,2013-04-16 12:51:00,
2013-04-16 07:56:00,72.7,70.2,30.05,West,281,2.0,7.0,92,0.00,,,0.00,WeatherCatV1.02B3,2013-04-16 12:56:00,
2013-04-16 08:01:00,72.9,70.4,30.05,West,276,1.0,3.0,92,0.00,,,0.00,WeatherCatV1.02B3,2013-04-16 13:01:00,
2013-04-16 08:06:00,73.0,70.2,30.05,WSW,252,4.0,6.0,91,0.00,,,0.00,WeatherCatV1.02B3,2013-04-16 13:06:00,
2013-04-16 08:11:00,73.2,70.4,30.06,WSW,256,3.0,6.0,91,0.00,,,0.00,WeatherCatV1.02B3,2013-04-16 13:11:00,
2013-04-16 08:16:00,73.4,70.6,30.06,WSW,258,3.0,4.0,91,0.00,,,0.00,WeatherCatV1.02B3,2013-04-16 13:16:00,
2013-04-16 08:21:00,73.5,70.7,30.06,SW,236,3.0,7.0,91,0.00,,,0.00,WeatherCatV1.02B3,2013-04-16 13:21:00,
2013-04-16 08:26:00,73.7,70.6,30.06,WSW,246,0.0,4.0,90,0.00,,,0.00,WeatherCatV1.02B3,2013-04-16 13:26:00,
2013-04-16 08:31:00,73.9,70.8,30.06,WSW,248,2.0,6.0,90,0.00,,,0.00,WeatherCatV1.02B3,2013-04-16 13:31:00,
2013-04-16 08:36:00,74.1,70.6,30.06,WSW,242,0.0,5.0,89,0.00,,,0.00,WeatherCatV1.02B3,2013-04-16 13:36:00,
2013-04-16 08:41:00,74.1,70.6,30.06,WSW,242,0.0,4.0,89,0.00,,,0.00,WeatherCatV1.02B3,2013-04-16 13:41:00,
2013-04-16 08:46:00,74.3,70.8,30.07,West,269,0.0,0.0,89,0.00,,,0.00,WeatherCatV1.02B3,2013-04-16 13:46:00,
2013-04-16 08:51:00,74.6,71.1,30.07,WSW,257,6.0,7.0,89,0.00,,,0.00,WeatherCatV1.02B3,2013-04-16 13:51:00,
2013-04-16 08:56:00,74.9,71.1,30.07,WSW,254,4.0,5.0,88,0.00,,,0.00,WeatherCatV1.02B3,2013-04-16 13:56:00,
2013-04-16 09:01:00,75.1,71.0,30.07,WSW,247,0.0,1.0,87,0.00,,,0.00,WeatherCatV1.02B3,2013-04-16 14:01:00,
2013-04-16 09:06:00,75.5,71.3,30.07,SW,227,3.0,4.0,87,0.00,,,0.00,WeatherCatV1.02B3,2013-04-16 14:06:00,
2013-04-16 09:11:00,75.8,71.6,30.07,West,279,0.0,2.0,87,0.00,,,0.00,WeatherCatV1.02B3,2013-04-16 14:11:00,
2013-04-16 09:16:00,76.1,71.2,30.08,NW,312,3.0,7.0,85,0.00,,,0.00,WeatherCatV1.02B3,2013-04-16 14:16:00,
2013-04-16 09:21:00,76.2,71.3,30.08,WSW,246,4.0,4.0,85,0.00,,,0.00,WeatherCatV1.02B3,2013-04-16 14:21:00,
2013-04-16 09:26:00,76.5,71.3,30.08,WSW,253,2.0,7.0,84,0.00,,,0.00,WeatherCatV1.02B3,2013-04-16 14:26:00,
2013-04-16 09:31:00,76.5,71.3,30.08,WSW,250,1.0,8.0,84,0.00,,,0.00,WeatherCatV1.02B3,2013-04-16 14:31:00,
2013-04-16 09:36:00,76.6,71.0,30.08,West,260,6.0,6.0,83,0.00,,,0.00,WeatherCatV1.02B3,2013-04-16 14:36:00,
2013-04-16 09:41:00,76.6,71.0,30.08,WSW,247,2.0,6.0,83,0.00,,,0.00,WeatherCatV1.02B3,2013-04-16 14:41:00,
2013-04-16 09:46:00,76.9,71.0,30.08,West,261,4.0,6.0,82,0.00,,,0.00,WeatherCatV1.02B3,2013-04-16 14:46:00,
2013-04-16 09:51:00,77.0,71.1,30.08,West,265,0.0,3.0,82,0.00,,,0.00,WeatherCatV1.02B3,2013-04-16 14:51:00,
2013-04-16 09:56:00,77.3,71.7,30.08,WSW,246,0.0,3.0,83,0.00,,,0.00,WeatherCatV1.02B3,2013-04-16 14:56:00,
2013-04-16 10:01:00,77.6,71.3,30.09,NW,311,4.0,6.0,81,0.00,,,0.00,WeatherCatV1.02B3,2013-04-16 15:01:00,
2013-04-16 10:06:00,77.6,71.3,30.09,WSW,242,0.0,3.0,81,0.00,,,0.00,WeatherCatV1.02B3,2013-04-16 15:06:00,
2013-04-16 10:11:00,77.9,71.2,30.09,WSW,244,3.0,4.0,80,0.00,,,0.00,WeatherCatV1.02B3,2013-04-16 15:11:00,
2013-04-16 10:16:00,78.2,71.1,30.09,West,269,0.0,6.0,79,0.00,,,0.00,WeatherCatV1.02B3,2013-04-16 15:16:00,
2013-04-16 10:21:00,78.5,71.8,30.09,West,269,1.0,7.0,80,0.00,,,0.00,WeatherCatV1.02B3,2013-04-16 15:21:00,
2013-04-16 10:26:00,79.1,72.0,30.09,West,278,1.0,4.0,79,0.00,,,0.00,WeatherCatV1.02B3,2013-04-16 15:26:00,
2013-04-16 10:31:00,79.6,71.3,30.09,WSW,249,3.0,10.0,76,0.00,,,0.00,WeatherCatV1.02B3,2013-04-16 15:31:00,
2013-04-16 10:36:00,79.9,71.2,30.10,WNW,300,5.0,7.0,75,0.00,,,0.00,WeatherCatV1.02B3,2013-04-16 15:36:00,
2013-04-16 10:41:00,79.7,70.7,30.10,WSW,250,4.0,6.0,74,0.00,,,0.00,WeatherCatV1.02B3,2013-04-16 15:41:00,
2013-04-16 10:46:00,79.6,71.0,30.10,WSW,250,5.0,7.0,75,0.00,,,0.00,WeatherCatV1.02B3,2013-04-16 15:46:00,
2013-04-16 10:51:00,79.9,71.2,30.10,West,259,3.0,7.0,75,0.00,,,0.00,WeatherCatV1.02B3,2013-04-16 15:51:00,
2013-04-16 10:56:00,80.2,70.7,30.10,West,267,1.0,6.0,73,0.00,,,0.00,WeatherCatV1.02B3,2013-04-16 15:56:00,
2013-04-16 11:01:00,80.2,70.7,30.10,West,261,3.0,8.0,73,0.00,,,0.00,WeatherCatV1.02B3,2013-04-16 16:01:00,
2013-04-16 11:06:00,80.0,70.5,30.10,NW,309,4.0,5.0,73,0.00,,,0.00,WeatherCatV1.02B3,2013-04-16 16:06:00,
2013-04-16 11:11:00,80.0,70.5,30.10,WNW,283,3.0,3.0,73,0.00,,,0.00,WeatherCatV1.02B3,2013-04-16 16:11:00,
2013-04-16 11:16:00,80.0,70.5,30.10,WNW,300,0.0,4.0,73,0.00,,,0.00,WeatherCatV1.02B3,2013-04-16 16:16:00,
2013-04-16 11:21:00,79.9,70.4,30.10,NW,308,3.0,4.0,73,0.00,,,0.00,WeatherCatV1.02B3,2013-04-16 16:21:00,
2013-04-16 11:26:00,80.2,70.3,30.10,WNW,292,3.0,4.0,72,0.00,,,0.00,WeatherCatV1.02B3,2013-04-16 16:26:00,
2013-04-16 11:31:00,80.4,70.5,30.10,WSW,253,3.0,5.0,72,0.00,,,0.00,WeatherCatV1.02B3,2013-04-16 16:31:00,
2013-04-16 11:36:00,80.6,69.9,30.10,West,266,3.0,8.0,70,0.00,,,0.00,WeatherCatV1.02B3,2013-04-16 16:36:00,
2013-04-16 11:41:00,80.8,70.5,30.10,West,259,0.0,5.0,71,0.00,,,0.00,WeatherCatV1.02B3,2013-04-16 16:41:00,
2013-04-16 11:46:00,80.8,70.1,30.10,WNW,300,4.0,4.0,70,0.00,,,0.00,WeatherCatV1.02B3,2013-04-16 16:46:00,
2013-04-16 11:51:00,80.7,70.4,30.10,WSW,258,4.0,5.0,71,0.00,,,0.00,WeatherCatV1.02B3,2013-04-16 16:51:00,
2013-04-16 11:56:00,80.9,71.0,30.10,WNW,296,0.0,4.0,72,0.00,,,0.00,WeatherCatV1.02B3,2013-04-16 16:56:00,
2013-04-16 12:01:00,81.1,70.8,30.10,West,269,1.0,3.0,71,0.00,,,0.00,WeatherCatV1.02B3,2013-04-16 17:01:00,
2013-04-16 12:06:00,81.3,71.4,30.10,West,261,4.0,4.0,72,0.00,,,0.00,WeatherCatV1.02B3,2013-04-16 17:06:00,
2013-04-16 12:11:00,81.7,70.5,30.10,West,266,4.0,5.0,69,0.00,,,0.00,WeatherCatV1.02B3,2013-04-16 17:11:00,
2013-04-16 12:16:00,81.9,70.3,30.09,West,266,1.0,4.0,68,0.00,,,0.00,WeatherCatV1.02B3,2013-04-16 17:16:00,
2013-04-16 12:21:00,82.0,69.9,30.09,West,273,5.0,7.0,67,0.00,,,0.00,WeatherCatV1.02B3,2013-04-16 17:21:00,
2013-04-16 12:26:00,82.3,70.2,30.09,West,267,5.0,5.0,67,0.00,,,0.00,WeatherCatV1.02B3,2013-04-16 17:26:00,
2013-04-16 12:31:00,82.3,70.2,30.09,WSW,256,1.0,7.0,67,0.00,,,0.00,WeatherCatV1.02B3,2013-04-16 17:31:00,
2013-04-16 12:36:00,82.5,70.4,30.09,West,265,2.0,7.0,67,0.00,,,0.00,WeatherCatV1.02B3,2013-04-16 17:36:00,
2013-04-16 12:41:00,82.8,70.7,30.09,West,261,1.0,7.0,67,0.00,,,0.00,WeatherCatV1.02B3,2013-04-16 17:41:00,
2013-04-16 12:46:00,83.4,71.7,30.09,WSW,257,1.0,2.0,68,0.00,,,0.00,WeatherCatV1.02B3,2013-04-16 17:46:00,
2013-04-16 12:51:00,83.2,71.1,30.09,WNW,294,0.0,5.0,67,0.00,,,0.00,WeatherCatV1.02B3,2013-04-16 17:51:00,
2013-04-16 12:56:00,82.8,70.7,30.09,WSW,257,2.0,6.0,67,0.00,,,0.00,WeatherCatV1.02B3,2013-04-16 17:56:00,
2013-04-16 13:01:00,82.7,71.5,30.09,West,263,0.0,2.0,69,0.00,,,0.00,WeatherCatV1.02B3,2013-04-16 18:01:00,
2013-04-16 13:06:00,83.1,71.4,30.08,West,267,1.0,6.0,68,0.00,,,0.00,WeatherCatV1.02B3,2013-04-16 18:06:00,
2013-04-16 13:11:00,83.6,71.0,30.08,WSW,252,1.0,6.0,66,0.00,,,0.00,WeatherCatV1.02B3,2013-04-16 18:11:00,
2013-04-16 13:16:00,83.5,71.4,30.08,West,265,0.0,5.0,67,0.00,,,0.00,WeatherCatV1.02B3,2013-04-16 18:16:00,
2013-04-16 13:21:00,83.4,70.8,30.08,West,272,4.0,6.0,66,0.00,,,0.00,WeatherCatV1.02B3,2013-04-16 18:21:00,
2013-04-16 13:26:00,83.4,69.9,30.08,WSW,254,2.0,4.0,64,0.00,,,0.00,WeatherCatV1.02B3,2013-04-16 18:26:00,
2013-04-16 13:31:00,83.6,71.0,30.08,WSW,239,2.0,4.0,66,0.00,,,0.00,WeatherCatV1.02B3,2013-04-16 18:31:00,
2013-04-16 13:36:00,84.0,70.5,30.08,NW,305,1.0,2.0,64,0.00,,,0.00,WeatherCatV1.02B3,2013-04-16 18:36:00,
2013-04-16 13:41:00,83.7,70.7,30.08,WNW,294,2.0,4.0,65,0.00,,,0.00,WeatherCatV1.02B3,2013-04-16 18:41:00,
2013-04-16 13:46:00,83.2,70.6,30.08,West,265,1.0,9.0,66,0.00,,,0.00,WeatherCatV1.02B3,2013-04-16 18:46:00,
2013-04-16 13:51:00,82.8,70.3,30.08,WSW,240,0.0,4.0,66,0.00,,,0.00,WeatherCatV1.02B3,2013-04-16 18:51:00,
2013-04-16 13:56:00,82.4,70.8,30.08,West,269,0.0,6.0,68,0.00,,,0.00,WeatherCatV1.02B3,2013-04-16 18:56:00,
2013-04-16 14:01:00,82.6,71.4,30.08,WSW,244,1.0,5.0,69,0.00,,,0.00,WeatherCatV1.02B3,2013-04-16 19:01:00,
2013-04-16 14:06:00,83.9,71.3,30.08,WSW,246,1.0,6.0,66,0.00,,,0.00,WeatherCatV1.02B3,2013-04-16 19:06:00,
2013-04-16 14:11:00,84.0,71.4,30.07,West,279,2.0,7.0,66,0.00,,,0.00,WeatherCatV1.02B3,2013-04-16 19:11:00,
2013-04-16 14:16:00,84.4,71.8,30.07,WSW,239,0.0,4.0,66,0.00,,,0.00,WeatherCatV1.02B3,2013-04-16 19:16:00,
2013-04-16 14:21:00,84.6,72.0,30.07,WSW,241,0.0,3.0,66,0.00,,,0.00,WeatherCatV1.02B3,2013-04-16 19:21:00,
2013-04-16 14:26:00,84.2,71.6,30.07,West,275,1.0,8.0,66,0.00,,,0.00,WeatherCatV1.02B3,2013-04-16 19:26:00,
2013-04-16 14:31:00,83.9,70.8,30.07,West,267,5.0,7.0,65,0.00,,,0.01,WeatherCatV1.02B3,2013-04-16 19:31:00,
2013-04-16 14:36:00,83.7,71.1,30.07,West,264,3.0,6.0,66,0.00,,,0.01,WeatherCatV1.02B3,2013-04-16 19:36:00,
2013-04-16 14:41:00,83.5,70.5,30.07,WSW,255,3.0,6.0,65,0.00,,,0.01,WeatherCatV1.02B3,2013-04-16 19:41:00,
2013-04-16 14:46:00,83.2,70.2,30.07,WNW,283,3.0,10.0,65,0.00,,,0.01,WeatherCatV1.02B3,2013-04-16 19:46:00,
2013-04-16 14:51:00,83.2,70.2,30.07,West,260,4.0,5.0,65,0.00,,,0.01,WeatherCatV1.02B3,2013-04-16 19:51:00,
2013-04-16 14:56:00,83.6,70.1,30.07,West,264,3.0,6.0,64,0.00,,,0.01,WeatherCatV1.02B3,2013-04-16 19:56:00,
2013-04-16 15:01:00,83.6,70.6,30.07,WSW,258,0.0,3.0,65,0.00,,,0.01,WeatherCatV1.02B3,2013-04-16 20:01:00,
2013-04-16 15:06:00,84.0,71.4,30.06,SSE,167,1.0,5.0,66,0.00,,,0.01,WeatherCatV1.02B3,2013-04-16 20:06:00,
2013-04-16 15:12:00,84.4,70.9,30.06,West,280,2.0,4.0,64,0.00,,,0.01,WeatherCatV1.02B3,2013-04-16 20:12:00,
2013-04-16 15:17:00,84.5,70.5,30.06,WNW,287,4.0,5.0,63,0.00,,,0.01,WeatherCatV1.02B3,2013-04-16 20:17:00,
2013-04-16 15:22:00,84.8,70.8,30.06,WSW,258,3.0,4.0,63,0.00,,,0.01,WeatherCatV1.02B3,2013-04-16 20:22:00,
2013-04-16 15:27:00,85.0,70.5,30.06,WSW,242,3.0,8.0,62,0.00,,,0.01,WeatherCatV1.02B3,2013-04-16 20:27:00,
2013-04-16 15:32:00,84.9,69.4,30.06,West,262,5.0,6.0,60,0.00,,,0.01,WeatherCatV1.02B3,2013-04-16 20:32:00,
2013-04-16 15:37:00,84.4,69.9,30.06,WNW,288,1.0,6.0,62,0.00,,,0.01,WeatherCatV1.02B3,2013-04-16 20:37:00,
2013-04-16 15:42:00,84.2,70.2,30.06,WNW,284,1.0,6.0,63,0.00,,,0.01,WeatherCatV1.02B3,2013-04-16 20:42:00,
2013-04-16 15:47:00,84.6,70.6,30.06,NW,323,3.0,3.0,63,0.00,,,0.01,WeatherCatV1.02B3,2013-04-16 20:47:00,
2013-04-16 15:52:00,84.5,70.5,30.05,WSW,252,2.0,8.0,63,0.00,,,0.01,WeatherCatV1.02B3,2013-04-16 20:52:00,
2013-04-16 15:57:00,84.1,70.6,30.05,WSW,254,0.0,7.0,64,0.00,,,0.01,WeatherCatV1.02B3,2013-04-16 20:57:00,
2013-04-16 16:02:00,84.4,70.4,30.05,SW,235,4.0,6.0,63,0.00,,,0.01,WeatherCatV1.02B3,2013-04-16 21:02:00,
2013-04-16 16:07:00,84.2,70.2,30.05,West,261,1.0,5.0,63,0.00,,,0.01,WeatherCatV1.02B3,2013-04-16 21:07:00,
2013-04-16 16:12:00,84.0,70.5,30.05,West,269,0.0,4.0,64,0.00,,,0.01,WeatherCatV1.02B3,2013-04-16 21:12:00,
2013-04-16 16:17:00,84.4,71.3,30.05,WSW,256,2.0,6.0,65,0.00,,,0.01,WeatherCatV1.02B3,2013-04-16 21:17:00,
2013-04-16 16:22:00,84.7,69.7,30.05,WNW,301,1.0,5.0,61,0.00,,,0.01,WeatherCatV1.02B3,2013-04-16 21:22:00,
2013-04-16 16:27:00,84.7,69.7,30.05,WSW,251,1.0,5.0,61,0.00,,,0.01,WeatherCatV1.02B3,2013-04-16 21:27:00,
2013-04-16 16:32:00,84.4,69.4,30.05,West,265,1.0,2.0,61,0.00,,,0.01,WeatherCatV1.02B3,2013-04-16 21:32:00,
2013-04-16 16:37:00,84.0,69.5,30.05,WSW,245,3.0,5.0,62,0.00,,,0.01,WeatherCatV1.02B3,2013-04-16 21:37:00,
2013-04-16 16:42:00,83.7,69.7,30.05,West,272,0.0,3.0,63,0.00,,,0.01,WeatherCatV1.02B3,2013-04-16 21:42:00,
2013-04-16 16:47:00,83.9,70.4,30.05,WNW,288,1.0,3.0,64,0.00,,,0.01,WeatherCatV1.02B3,2013-04-16 21:47:00,
2013-04-16 16:52:00,83.9,70.4,30.05,West,265,1.0,6.0,64,0.00,,,0.01,WeatherCatV1.02B3,2013-04-16 21:52:00,
2013-04-16 16:57:00,83.8,70.3,30.05,West,280,5.0,6.0,64,0.00,,,0.01,WeatherCatV1.02B3,2013-04-16 21:57:00,
2013-04-16 17:02:00,84.1,70.1,30.05,WSW,253,0.0,6.0,63,0.00,,,0.01,WeatherCatV1.02B3,2013-04-16 22:02:00,
2013-04-16 17:07:00,83.9,69.9,30.05,WSW,248,5.0,5.0,63,0.00,,,0.01,WeatherCatV1.02B3,2013-04-16 22:07:00,
2013-04-16 17:12:00,83.8,70.8,30.05,WSW,250,1.0,3.0,65,0.00,,,0.01,WeatherCatV1.02B3,2013-04-16 22:12:00,
2013-04-16 17:17:00,84.0,70.5,30.05,West,264,0.0,3.0,64,0.00,,,0.01,WeatherCatV1.02B3,2013-04-16 22:17:00,
2013-04-16 17:22:00,83.8,70.3,30.05,West,267,1.0,1.0,64,0.00,,,0.01,WeatherCatV1.02B3,2013-04-16 22:22:00,
2013-04-16 17:27:00,83.7,70.7,30.05,West,269,1.0,2.0,65,0.00,,,0.01,WeatherCatV1.02B3,2013-04-16 22:27:00,
2013-04-16 17:32:00,83.4,69.9,30.05,WNW,288,0.0,1.0,64,0.00,,,0.01,WeatherCatV1.02B3,2013-04-16 22:32:00,
2013-04-16 17:37:00,83.2,70.2,30.05,WSW,258,1.0,4.0,65,0.00,,,0.01,WeatherCatV1.02B3,2013-04-16 22:37:00,
2013-04-16 17:42:00,83.0,70.4,30.05,West,261,0.0,1.0,66,0.00,,,0.01,WeatherCatV1.02B3,2013-04-16 22:42:00,
2013-04-16 17:47:00,82.9,70.3,30.05,WNW,300,1.0,2.0,66,0.00,,,0.01,WeatherCatV1.02B3,2013-04-16 22:47:00,
2013-04-16 17:52:00,82.8,70.3,30.05,WNW,294,0.0,1.0,66,0.00,,,0.01,WeatherCatV1.02B3,2013-04-16 22:52:00,
2013-04-16 17:57:00,82.7,70.6,30.06,WNW,294,0.0,1.0,67,0.00,,,0.01,WeatherCatV1.02B3,2013-04-16 22:57:00,
2013-04-16 18:02:00,82.6,70.5,30.06,WNW,294,0.0,1.0,67,0.00,,,0.01,WeatherCatV1.02B3,2013-04-16 23:02:00,
2013-04-16 18:07:00,82.5,70.4,30.06,WNW,293,0.0,1.0,67,0.00,,,0.01,WeatherCatV1.02B3,2013-04-16 23:07:00,
2013-04-16 18:12:00,82.4,70.3,30.06,West,273,0.0,4.0,67,0.00,,,0.01,WeatherCatV1.02B3,2013-04-16 23:12:00,
2013-04-16 18:17:00,82.3,70.7,30.06,West,269,0.0,1.0,68,0.00,,,0.01,WeatherCatV1.02B3,2013-04-16 23:17:00,
2013-04-16 18:22:00,82.2,70.6,30.06,West,279,0.0,1.0,68,0.00,,,0.01,WeatherCatV1.02B3,2013-04-16 23:22:00,
2013-04-16 18:27:00,82.0,70.4,30.06,West,279,0.0,0.0,68,0.00,,,0.01,WeatherCatV1.02B3,2013-04-16 23:27:00,
2013-04-16 18:32:00,81.9,69.8,30.06,West,279,0.0,1.0,67,0.00,,,0.01,WeatherCatV1.02B3,2013-04-16 23:32:00,
2013-04-16 18:37:00,81.8,70.2,30.06,West,279,0.0,0.0,68,0.00,,,0.01,WeatherCatV1.02B3,2013-04-16 23:37:00,
2013-04-16 18:42:00,81.6,70.0,30.06,West,279,0.0,0.0,68,0.00,,,0.01,WeatherCatV1.02B3,2013-04-16 23:42:00,
2013-04-16 18:47:00,81.4,69.8,30.06,WSW,257,0.0,0.0,68,0.00,,,0.01,WeatherCatV1.02B3,2013-04-16 23:47:00,
2013-04-16 18:52:00,81.3,70.1,30.06,WSW,239,0.0,0.0,69,0.00,,,0.01,WeatherCatV1.02B3,2013-04-16 23:52:00,
2013-04-16 18:57:00,81.1,70.4,30.06,WSW,239,0.0,0.0,70,0.00,,,0.01,WeatherCatV1.02B3,2013-04-16 23:57:00,
2013-04-16 19:02:00,80.9,70.2,30.05,WSW,239,0.0,0.0,70,0.00,,,0.01,WeatherCatV1.02B3,2013-04-17 00:02:00,
2013-04-16 19:07:00,80.8,70.1,30.05,WSW,239,0.0,0.0,70,0.00,,,0.01,WeatherCatV1.02B3,2013-04-17 00:07:00,
2013-04-16 19:12:00,80.5,70.2,30.06,WSW,239,0.0,0.0,71,0.00,,,0.01,WeatherCatV1.02B3,2013-04-17 00:12:00,
2013-04-16 19:17:00,80.3,70.0,30.06,WSW,239,0.0,0.0,71,0.00,,,0.01,WeatherCatV1.02B3,2013-04-17 00:17:00,
2013-04-16 19:22:00,80.1,69.8,30.06,WSW,239,0.0,0.0,71,0.00,,,0.01,WeatherCatV1.02B3,2013-04-17 00:22:00,
2013-04-16 19:27:00,79.8,69.9,30.06,WSW,239,0.0,0.0,72,0.00,,,0.01,WeatherCatV1.02B3,2013-04-17 00:27:00,
2013-04-16 19:32:00,79.4,69.6,30.06,WSW,239,0.0,0.0,72,0.00,,,0.01,WeatherCatV1.02B3,2013-04-17 00:32:00,
2013-04-16 19:37:00,79.2,69.8,30.06,WSW,239,0.0,0.0,73,0.00,,,0.01,WeatherCatV1.02B3,2013-04-17 00:37:00,
2013-04-16 19:42:00,78.9,69.5,30.07,WSW,239,0.0,0.0,73,0.00,,,0.01,WeatherCatV1.02B3,2013-04-17 00:42:00,
2013-04-16 19:47:00,78.5,69.5,30.06,WSW,239,0.0,0.0,74,0.00,,,0.01,WeatherCatV1.02B3,2013-04-17 00:47:00,
2013-04-16 19:52:00,78.2,69.2,30.07,WSW,239,0.0,0.0,74,0.00,,,0.01,WeatherCatV1.02B3,2013-04-17 00:52:00,
2013-04-16 19:57:00,77.9,69.3,30.07,WSW,239,0.0,0.0,75,0.00,,,0.01,WeatherCatV1.02B3,2013-04-17 00:57:00,
2013-04-16 20:02:00,77.5,69.3,30.07,WSW,239,0.0,0.0,76,0.00,,,0.01,WeatherCatV1.02B3,2013-04-17 01:02:00,
2013-04-16 20:07:00,77.2,69.4,30.07,WSW,239,0.0,0.0,77,0.00,,,0.01,WeatherCatV1.02B3,2013-04-17 01:07:00,
2013-04-16 20:12:00,76.9,69.1,30.07,WSW,239,0.0,0.0,77,0.00,,,0.01,WeatherCatV1.02B3,2013-04-17 01:12:00,
2013-04-16 20:17:00,76.6,69.2,30.07,WSW,239,0.0,0.0,78,0.00,,,0.01,WeatherCatV1.02B3,2013-04-17 01:17:00,
2013-04-16 20:22:00,76.3,69.3,30.07,WSW,239,0.0,0.0,79,0.00,,,0.01,WeatherCatV1.02B3,2013-04-17 01:22:00,
2013-04-16 20:27:00,76.0,69.4,30.08,WSW,239,0.0,0.0,80,0.00,,,0.01,WeatherCatV1.02B3,2013-04-17 01:27:00,
2013-04-16 20:32:00,75.7,69.4,30.08,WSW,239,0.0,0.0,81,0.00,,,0.01,WeatherCatV1.02B3,2013-04-17 01:32:00,
2013-04-16 20:37:00,75.5,69.2,30.08,WSW,239,0.0,0.0,81,0.00,,,0.01,WeatherCatV1.02B3,2013-04-17 01:37:00,
2013-04-16 20:42:00,75.3,69.1,30.08,WSW,239,0.0,0.0,81,0.00,,,0.01,WeatherCatV1.02B3,2013-04-17 01:42:00,
2013-04-16 20:47:00,75.2,69.3,30.08,WSW,239,0.0,0.0,82,0.00,,,0.01,WeatherCatV1.02B3,2013-04-17 01:47:00,
2013-04-16 20:52:00,75.0,69.1,30.08,WSW,239,0.0,0.0,82,0.00,,,0.01,WeatherCatV1.02B3,2013-04-17 01:52:00,
2013-04-16 20:57:00,74.9,69.0,30.08,WSW,239,0.0,0.0,82,0.00,,,0.01,WeatherCatV1.02B3,2013-04-17 01:57:00,
2013-04-16 21:02:00,74.8,69.3,30.08,WSW,239,0.0,0.0,83,0.00,,,0.01,WeatherCatV1.02B3,2013-04-17 02:02:00,
2013-04-16 21:07:00,74.6,69.1,30.08,WSW,239,0.0,0.0,83,0.00,,,0.01,WeatherCatV1.02B3,2013-04-17 02:07:00,
2013-04-16 21:12:00,74.4,68.9,30.08,WSW,239,0.0,0.0,83,0.00,,,0.01,WeatherCatV1.02B3,2013-04-17 02:12:00,
2013-04-16 21:17:00,74.3,69.1,30.08,WSW,239,0.0,2.0,84,0.00,,,0.01,WeatherCatV1.02B3,2013-04-17 02:17:00,
2013-04-16 21:22:00,74.3,69.5,30.09,WSW,239,0.0,0.0,85,0.00,,,0.01,WeatherCatV1.02B3,2013-04-17 02:22:00,
2013-04-16 21:27:00,74.4,69.6,30.08,WSW,246,0.0,1.0,85,0.00,,,0.01,WeatherCatV1.02B3,2013-04-17 02:27:00,
2013-04-16 21:32:00,74.6,69.4,30.09,WSW,246,0.0,0.0,84,0.00,,,0.01,WeatherCatV1.02B3,2013-04-17 02:32:00,
2013-04-16 21:37:00,74.7,69.5,30.09,NW,304,0.0,0.0,84,0.00,,,0.01,WeatherCatV1.02B3,2013-04-17 02:37:00,
2013-04-16 21:42:00,74.8,69.6,30.09,West,273,0.0,2.0,84,0.00,,,0.01,WeatherCatV1.02B3,2013-04-17 02:42:00,
2013-04-16 21:47:00,75.0,69.5,30.09,WSW,254,0.0,2.0,83,0.00,,,0.01,WeatherCatV1.02B3,2013-04-17 02:47:00,
2013-04-16 21:52:00,75.1,69.6,30.10,WSW,253,2.0,4.0,83,0.00,,,0.01,WeatherCatV1.02B3,2013-04-17 02:52:00,
2013-04-16 21:57:00,75.1,69.6,30.10,WSW,254,1.0,1.0,83,0.00,,,0.01,WeatherCatV1.02B3,2013-04-17 02:57:00,
2013-04-16 22:02:00,75.2,69.3,30.10,WSW,254,0.0,4.0,82,0.00,,,0.01,WeatherCatV1.02B3,2013-04-17 03:02:00,
2013-04-16 22:07:00,75.2,69.3,30.10,WSW,255,0.0,1.0,82,0.00,,,0.01,WeatherCatV1.02B3,2013-04-17 03:07:00,
2013-04-16 22:12:00,75.2,69.3,30.10,WSW,255,2.0,4.0,82,0.00,,,0.01,WeatherCatV1.02B3,2013-04-17 03:12:00,
2013-04-16 22:17:00,75.0,69.5,30.10,WSW,255,0.0,0.0,83,0.00,,,0.01,WeatherCatV1.02B3,2013-04-17 03:17:00,
2013-04-16 22:22:00,74.9,69.4,30.10,WSW,255,0.0,2.0,83,0.00,,,0.01,WeatherCatV1.02B3,2013-04-17 03:22:00,
2013-04-16 22:27:00,74.8,69.3,30.09,WSW,255,2.0,2.0,83,0.00,,,0.01,WeatherCatV1.02B3,2013-04-17 03:27:00,
2013-04-16 22:32:00,74.7,69.5,30.10,West,261,1.0,4.0,84,0.00,,,0.01,WeatherCatV1.02B3,2013-04-17 03:32:00,
2013-04-16 22:37:00,74.6,69.4,30.10,West,261,0.0,3.0,84,0.00,,,0.01,WeatherCatV1.02B3,2013-04-17 03:37:00,
2013-04-16 22:42:00,74.6,69.4,30.10,West,261,0.0,1.0,84,0.00,,,0.01,WeatherCatV1.02B3,2013-04-17 03:42:00,
2013-04-16 22:47:00,74.5,69.3,30.10,West,261,0.0,2.0,84,0.00,,,0.01,WeatherCatV1.02B3,2013-04-17 03:47:00,
2013-04-16 22:52:00,74.4,69.2,30.10,West,261,0.0,1.0,84,0.00,,,0.01,WeatherCatV1.02B3,2013-04-17 03:52:00,
2013-04-16 22:57:00,74.4,69.6,30.10,West,261,0.0,2.0,85,0.00,,,0.01,WeatherCatV1.02B3,2013-04-17 03:57:00,
2013-04-16 23:00:00,74.3,69.5,30.10,West,261,0.0,1.0,85,0.00,,,0.01,WeatherCatV1.02B3,2013-04-17 04:00:00,
2013-04-16 23:01:00,74.2,69.4,30.10,West,261,0.0,2.0,85,0.00,,,0.01,WeatherCatV1.02B3,2013-04-17 04:01:00,
2013-04-16 23:06:00,74.2,69.4,30.10,West,259,0.0,4.0,85,0.00,,,0.01,WeatherCatV1.02B3,2013-04-17 04:06:00,
2013-04-16 23:11:00,74.0,69.2,30.10,West,259,0.0,1.0,85,0.00,,,0.01,WeatherCatV1.02B3,2013-04-17 04:11:00,
2013-04-16 23:16:00,74.0,69.2,30.10,West,259,0.0,3.0,85,0.00,,,0.01,WeatherCatV1.02B3,2013-04-17 04:16:00,
2013-04-16 23:21:00,73.9,69.4,30.10,West,274,0.0,2.0,86,0.00,,,0.01,WeatherCatV1.02B3,2013-04-17 04:21:00,
2013-04-16 23:26:00,73.8,69.3,30.10,West,272,1.0,3.0,86,0.00,,,0.01,WeatherCatV1.02B3,2013-04-17 04:26:00,
2013-04-16 23:31:00,73.8,69.3,30.10,West,271,0.0,2.0,86,0.00,,,0.01,WeatherCatV1.02B3,2013-04-17 04:31:00,
2013-04-16 23:36:00,73.7,69.2,30.10,West,271,0.0,1.0,86,0.00,,,0.01,WeatherCatV1.02B3,2013-04-17 04:36:00,
2013-04-16 23:41:00,73.6,69.1,30.10,West,270,0.0,1.0,86,0.00,,,0.01,WeatherCatV1.02B3,2013-04-17 04:41:00,
2013-04-16 23:46:00,73.5,69.4,30.10,WNW,288,0.0,1.0,87,0.00,,,0.01,WeatherCatV1.02B3,2013-04-17 04:46:00,
2013-04-16 23:51:00,73.5,69.4,30.10,West,265,0.0,2.0,87,0.00,,,0.01,WeatherCatV1.02B3,2013-04-17 04:51:00,
2013-04-16 23:56:00,73.4,69.3,30.10,WSW,247,0.0,2.0,87,0.00,,,0.01,WeatherCatV1.02B3,2013-04-17 04:56:00,